Location: Brad
(46.1333°N, 22.7833°E)
Time: 06:27:18
(UTC+00:00)

Cosmos 1844 - Pass Details

Date: 03 February 2023
Orbit: 822 x 868 km, 70.9° (Epoch: 29 March)

Event Time Altitude Azimuth Distance (km) Brightness Sun altitude
Rises 16:13:09 0° 337° (NNW) 3,464 7.0 -6.8°
Reaches altitude 10° 16:15:50 10° 346° (NNW) 2,523 6.2 -7.3°
Maximum altitude 16:21:12 38° 53° (NE) 1,311 4.3 -8.2°
Drops below altitude 10° 16:26:32 10° 121° (ESE) 2,498 5.7 -9.1°
Sets 16:29:09 0° 129° (SE) 3,426 6.5 -9.5°
